ANIK F2

Last updated on Sun Apr 12 2026 00:02:51 GMT+0000 (Coordinated Universal Time)

1 28378U 04027A 26101.49867729 -.00000046 00000+0 00000+0 0 9992 2 28378 3.1122 80.3117 0004172 327.7863 220.0303 1.00272142 40596
UTC large
Height (km)
Speed (km/s)
/
Latitude / Longitude
Inclination (degrees)
Orbital Period (minutes)
Azimuth
Elevation
Range (km)
Doppler Factor

Next 0 passes for location: London (51.5072 / 0.1276)

Sorry there are no passes over London.
ANIK F2